[[{"header":{"parameterUnit":"m.s-1","parameterCategory":1,"la1":30.2991,"la2":30.254,"lo1":-89.0895,"lo2":-89.0444,"dy":0.0017,"dx":0.0017,"nx":28,"ny":28,"refTime":"2024-06-24T21:00:00:Z","depth":0,"parameterNumber":2,"parameterNumberName":"U-component_of_WINDS"},"data":[0,0,0,0,0,0,0,0,0,0,0,0,0,0,0,0,0,0,0,0,0,0,0,0,0,0,0,0,0,0,0,0,0,0,0,0,0,0,0,0,0,0,0,0,0,0,0,0,0,0,0,0,0,0,0,0,0,0,2.1742,2.1744,0,2.1922,2.1924,2.1926,2.1969,2.1968,2.1967,2.1966,2.2154,2.216,2.2166,0,0,0,0,0,0,0,0,0,0,0,0,0,2.144,2.1445,2.1742,2.1744,2.1747,2.1921,2.1924,2.1926,2.1969,2.1968,2.1966,2.1965,2.2152,2.2159,2.2166,0,0,0,0,0,0,0,0,0,0,0,0,0,2.1591,2.1447,2.1742,2.1789,2.1795,2.1921,2.1924,2.1927,2.197,2.1968,2.1966,2.1964,2.2149,2.2158,2.2167,2.226,0,0,2.2195,2.2199,0,0,0,0,0,0,0,0,2.1582,2.1602,2.178,2.1786,2.1793,2.1921,2.1887,2.2039,2.197,2.1903,2.1966,2.1963,2.2078,2.2093,2.2131,2.2269,2.2277,2.2196,2.2202,2.2206,2.2208,0,0,0,0,0,0,0,2.1572,2.1594,2.1813,2.1782,2.179,2.1802,2.1822,2.1916,2.1999,2.1909,2.1913,2.1933,2.2081,2.2122,2.2135,2.228,2.2196,2.2204,2.221,2.2213,2.2504,2.2506,0,0,0,0,0,0,2.1552,2.1585,2.1808,2.1819,2.1681,2.1809,2.1831,2.1882,2.1998,2.2014,2.1934,2.1934,2.2107,2.2125,2.2142,2.2258,2.2206,2.2214,2.222,2.2502,2.2504,2.2507,0,0,0,0,0,0,2.1546,2.1572,2.18,2.1703,2.1733,2.1816,2.1873,2.1886,2.1927,2.2017,2.2032,2.196,2.2106,2.2129,2.223,2.2265,2.2218,2.2227,2.2499,2.2502,2.2505,2.2491,0,0,0,0,0,0,2.1537,2.1569,2.1604,2.1703,2.1738,2.1884,2.1875,2.1891,2.1942,2.1944,2.2045,2.206,2.2107,2.2216,2.2239,2.2277,2.2234,2.2496,2.25,2.2504,2.2488,2.2493,2.2497,0,0,0,0,0,2.1526,2.1594,2.1606,2.1632,2.1783,2.1886,2.1906,2.1956,2.1945,2.1981,2.2039,2.2057,2.2258,2.2226,2.2253,2.2294,2.2494,2.2499,2.2504,2.2487,2.2492,2.2497,0,0,0,0,0,0,2.1498,2.1608,2.1622,2.1724,2.1795,2.1893,2.194,2.1961,2.2038,2.2036,2.2097,2.212,2.2217,2.2266,2.2228,2.239,2.2376,2.2387,2.2354,2.236,2.2364,2.235,2.2242,0,0,0,0,0,2.1503,2.1576,2.1669,2.175,2.1785,2.1856,2.1903,2.1936,2.2012,2.2043,2.2108,2.2183,2.2263,2.2315,2.2393,2.2496,2.2519,2.2538,2.2542,2.2545,2.2553,2.2611,2.262,2.2523,2.2523,2.2523,0,0,2.1515,2.1585,2.1627,2.1746,2.1805,2.1879,2.1881,2.1961,2.2017,2.2056,2.2154,2.2205,2.2293,2.2395,2.2443,2.2439,2.2585,2.2552,2.2553,2.256,2.2617,2.2626,2.2634,2.2526,2.2526,2.2525,0,0,2.1576,2.1635,2.1709,2.1768,2.1857,2.1904,2.1922,2.2017,2.2052,2.2151,2.2182,2.2251,2.2387,2.2448,2.2497,2.2581,2.2601,2.2606,2.2628,2.2684,2.2691,2.2698,2.2727,2.2737,2.2614,2.2614,2.2614,0,2.158,2.1692,2.1745,2.1822,2.1874,2.1911,2.1987,2.2042,2.2152,2.2188,2.2181,2.2353,2.2415,2.2531,2.2552,2.2591,2.2613,2.2594,2.2686,2.2693,2.2701,2.2729,2.274,2.2614,2.2614,2.2614,2.2614,0,2.1693,2.1771,2.182,2.1924,2.1981,2.2058,2.2122,2.2175,2.2203,2.2251,2.2353,2.2428,2.2523,2.2553,2.2582,2.2674,2.2669,2.2673,2.266,2.2709,2.2737,2.2748,2.2613,2.2613,2.2614,2.2614,0,0,2.1739,2.1871,2.1888,2.1936,2.2037,2.2099,2.2177,2.2268,2.2312,2.2387,2.2455,2.257,2.2574,2.263,2.2667,2.2716,2.2776,2.2714,2.2717,2.2722,2.2882,2.2876,2.2888,2.279,2.2793,2.2795,2.2874,0,2.181,2.195,2.1999,2.2115,2.2188,2.2225,2.2294,2.2364,2.2411,2.2481,2.2535,2.2615,2.2615,2.2649,2.2699,2.2758,2.2809,2.2753,2.2854,2.2857,2.2829,2.2903,2.2898,2.2969,2.2885,2.2887,2.2889,0,2.1912,2.1987,2.2109,2.2201,2.2234,2.2294,2.2382,2.2448,2.2529,2.256,2.2622,2.2655,2.274,2.2723,2.2841,2.2802,2.2846,2.2881,2.2886,2.2896,2.2874,2.2914,2.2993,2.3003,2.2907,2.2905,2.2904,0,2.1931,2.2064,2.2154,2.2194,2.2304,2.2345,2.2393,2.2472,2.2524,2.2601,2.2635,2.2722,2.2769,2.2836,2.2892,2.2875,2.3005,2.2993,2.3034,2.3032,2.3058,2.3055,2.3144,2.3089,2.3089,2.3089,2.3088,0,2.2005,2.2078,2.2164,2.2219,2.2302,2.236,2.2441,2.2492,2.2562,2.2628,2.2667,2.2729,2.28,2.2872,2.2917,2.3007,2.3029,2.3057,2.3067,2.3052,2.3048,2.3081,2.3077,2.3091,2.3091,2.309,2.309,0,2.204,2.21,2.2201,2.2297,2.2323,2.238,2.2463,2.2518,2.2568,2.2652,2.2675,2.2754,2.284,2.2903,2.3015,2.3045,2.3141,2.3153,2.3113,2.3118,2.3155,2.315,2.3266,2.3284,2.3218,2.3219,2.3219,0,2.2082,2.2139,2.2241,2.2287,2.2335,2.241,2.2463,2.2522,2.2576,2.2672,2.2716,2.2805,2.2879,2.3015,2.3083,2.3169,2.3182,2.3217,2.3195,2.3178,2.3181,2.3176,2.3182,2.3219,2.322,2.322,2.322,0,2.215,2.2177,2.2251,2.2335,2.2396,2.2466,2.2536,2.2573,2.2645,2.2703,2.2791,2.2848,2.2962,2.305,2.3142,2.3194,2.3219,2.3227,2.3241,2.3225,2.3199,2.3212,2.312,2.3224,2.3223,2.3223,2.3223,2.3223,2.2189,2.2241,2.2321,2.2402,2.2461,2.2526,2.2582,2.2639,2.2713,2.2809,2.284,2.2931,2.3012,2.3139,2.3191,2.3264,2.3263,2.3283,2.3288,2.3291,2.329,2.3189,2.3281,2.3281,2.3281,2.3281,2.3281,0,2.2258,2.2311,2.2385,2.2481,2.2545,2.2563,2.2642,2.2695,2.2774,2.2846,2.2918,2.3019,2.3104,2.3179,2.3268,2.3312,2.3326,2.3333,2.3329,2.3341,2.3286,2.3265,2.332,2.332,2.332,2.332,2.332,2.332,2.2301,2.239,2.2426,2.2545,2.2599,2.2687,2.273,2.2791,2.2849,2.2959,2.303,2.3078,2.3151,2.3246,2.3325,2.3345,2.3376,2.338,2.3402,2.335,2.3345,2.334,2.332,2.3386,2.3386,2.3451,2.3452,2.3452]},{"header":{"parameterUnit":"m.s-1","parameterCategory":1,"la1":30.2991,"la2":30.254,"lo1":-89.0895,"lo2":-89.0444,"dy":0.0017,"dx":0.0017,"nx":28,"ny":28,"refTime":"2024-06-24T21:00:00:Z","depth":0,"parameterNumber":3,"parameterNumberName":"V-component_of_WINDS"},"data":[0,0,0,0,0,0,0,0,0,0,0,0,0,0,0,0,0,0,0,0,0,0,0,0,0,0,0,0,0,0,0,0,0,0,0,0,0,0,0,0,0,0,0,0,0,0,0,0,0,0,0,0,0,0,0,0,0,0,4.2281,4.2282,0,4.2354,4.2355,4.2355,4.2343,4.2342,4.2341,4.234,4.2405,4.2408,4.2411,0,0,0,0,0,0,0,0,0,0,0,0,0,4.2122,4.2125,4.2281,4.2282,4.2283,4.2354,4.2355,4.2356,4.2343,4.2342,4.234,4.2339,4.2404,4.2407,4.2411,0,0,0,0,0,0,0,0,0,0,0,0,0,4.2192,4.2126,4.2281,4.2286,4.2287,4.2353,4.2355,4.2356,4.2344,4.2342,4.234,4.2338,4.2403,4.2407,4.2411,4.2475,0,0,4.2425,4.2427,0,0,0,0,0,0,0,0,4.2188,4.2198,4.2284,4.2285,4.2287,4.2338,4.2323,4.2396,4.2344,4.2322,4.2339,4.2337,4.2384,4.2389,4.2407,4.2478,4.2481,4.2425,4.2428,4.243,4.2431,0,0,0,0,0,0,0,4.2183,4.2195,4.2309,4.2285,4.2287,4.2281,4.2289,4.2336,4.2362,4.2324,4.2323,4.2332,4.2384,4.2403,4.2408,4.2482,4.2425,4.2429,4.2431,4.2433,4.2608,4.261,0,0,0,0,0,0,4.2179,4.2191,4.2307,4.2312,4.2232,4.2285,4.2294,4.2323,4.2361,4.2366,4.2334,4.2331,4.2396,4.2403,4.241,4.2488,4.243,4.2434,4.2436,4.2606,4.2609,4.2611,0,0,0,0,0,0,4.2175,4.2189,4.2304,4.2251,4.2265,4.229,4.2323,4.2325,4.2344,4.2369,4.2373,4.2349,4.2395,4.2404,4.246,4.249,4.2436,4.244,4.2604,4.2607,4.261,4.2642,0,0,0,0,0,0,4.2171,4.2188,4.2215,4.2252,4.2268,4.2355,4.2324,4.2328,4.2353,4.2351,4.2384,4.2388,4.2394,4.2453,4.2464,4.2495,4.2443,4.2601,4.2605,4.2609,4.2639,4.2646,4.2652,0,0,0,0,0,4.2165,4.2219,4.2216,4.223,4.2303,4.2357,4.2366,4.2375,4.2355,4.2381,4.2397,4.2387,4.2485,4.2459,4.2471,4.2503,4.26,4.2604,4.2609,4.2636,4.2645,4.2652,0,0,0,0,0,0,4.2181,4.2224,4.2221,4.229,4.232,4.2355,4.2388,4.2384,4.2418,4.2414,4.2421,4.2428,4.2484,4.2499,4.247,4.2566,4.2539,4.2546,4.2555,4.2564,4.2571,4.2566,4.2447,0,0,0,0,0,4.2194,4.2237,4.2271,4.2328,4.2343,4.2363,4.2387,4.2391,4.2422,4.2433,4.2453,4.2481,4.2517,4.2541,4.2577,4.264,4.2647,4.2668,4.2675,4.2681,4.2687,4.2721,4.273,4.2626,4.2626,4.2626,0,0,4.2218,4.2247,4.2273,4.2332,4.2356,4.2398,4.2374,4.2419,4.245,4.2439,4.2494,4.2509,4.254,4.26,4.2627,4.2614,4.2717,4.2687,4.2691,4.2694,4.2726,4.2736,4.2745,4.2629,4.2629,4.2628,0,0,4.2284,4.2311,4.2362,4.2387,4.2425,4.2438,4.2449,4.2485,4.2496,4.2551,4.2544,4.2578,4.2642,4.2664,4.2684,4.2758,4.275,4.2769,4.2805,4.2838,4.2846,4.2853,4.2879,4.2889,4.2775,4.2775,4.2775,0,4.2309,4.2376,4.2387,4.2434,4.2459,4.2455,4.2504,4.2526,4.2572,4.2588,4.2574,4.2653,4.2674,4.2738,4.2757,4.2773,4.2785,4.2765,4.2845,4.2852,4.2859,4.2884,4.2893,4.2777,4.2777,4.2777,4.2776,0,4.2404,4.2449,4.2485,4.2533,4.2562,4.261,4.2625,4.2653,4.2654,4.2667,4.2722,4.2747,4.2787,4.2802,4.2803,4.2867,4.2857,4.2844,4.2816,4.2871,4.2894,4.2904,4.278,4.2779,4.2779,4.2778,0,0,4.2482,4.2537,4.255,4.2572,4.2613,4.2647,4.2693,4.2735,4.2758,4.2789,4.2827,4.2881,4.2869,4.2891,4.2893,4.2922,4.2979,4.2905,4.2905,4.2917,4.305,4.306,4.3071,4.2974,4.2976,4.2977,4.3047,0,4.2552,4.2638,4.265,4.2724,4.2766,4.2762,4.2802,4.283,4.2843,4.2877,4.289,4.2929,4.291,4.2923,4.2952,4.2966,4.3005,4.2961,4.3006,4.3008,4.3,4.3083,4.3095,4.316,4.3056,4.3058,4.3059,0,4.2645,4.2683,4.2763,4.2799,4.2817,4.2853,4.2892,4.2926,4.2957,4.2964,4.2989,4.2988,4.3033,4.3004,4.3065,4.3034,4.3053,4.3063,4.3065,4.307,4.3037,4.309,4.3181,4.319,4.3073,4.3072,4.3071,0,4.2694,4.2765,4.2822,4.284,4.2884,4.2909,4.2927,4.2957,4.2981,4.3014,4.3029,4.3066,4.3086,4.3113,4.3121,4.3099,4.3181,4.3152,4.3186,4.3186,4.3204,4.3202,4.3299,4.3216,4.3216,4.3216,4.3215,0,4.2771,4.282,4.2845,4.288,4.2933,4.2944,4.2996,4.3013,4.3039,4.3075,4.3072,4.3105,4.3114,4.3147,4.3153,4.3202,4.3211,4.3216,4.3217,4.3217,4.3216,4.3229,4.3225,4.3218,4.3218,4.3217,4.3217,0,4.2835,4.2854,4.2916,4.2952,4.2963,4.3,4.303,4.3062,4.3075,4.3121,4.3132,4.3151,4.3191,4.3201,4.3248,4.3252,4.3309,4.3306,4.33,4.33,4.3333,4.333,4.3441,4.3456,4.3364,4.3365,4.3365,0,4.2883,4.2921,4.2963,4.2989,4.3009,4.305,4.3076,4.3087,4.3113,4.3151,4.3178,4.3218,4.3251,4.3313,4.333,4.3365,4.3362,4.3399,4.3367,4.3366,4.3362,4.336,4.3364,4.3405,4.3406,4.3406,4.3407,0,4.2966,4.2974,4.3013,4.3056,4.3087,4.312,4.3151,4.3172,4.3187,4.3216,4.3258,4.3284,4.3333,4.3372,4.3407,4.3423,4.3417,4.3417,4.3427,4.3426,4.3422,4.3425,4.3316,4.3414,4.3413,4.3413,4.3413,4.3412,4.3023,4.3057,4.3092,4.3135,4.3161,4.3191,4.3223,4.3241,4.3278,4.3321,4.3324,4.337,4.3397,4.3445,4.3463,4.3497,4.3485,4.3499,4.3503,4.3506,4.3509,4.3417,4.3503,4.3503,4.3502,4.3502,4.3502,0,4.3106,4.3129,4.3169,4.3215,4.3248,4.3243,4.3277,4.3305,4.3346,4.3374,4.3407,4.3455,4.3493,4.3513,4.3549,4.3572,4.3571,4.3582,4.358,4.3583,4.3517,4.3505,4.3583,4.3583,4.3583,4.3583,4.3583,4.3583,4.3153,4.321,4.3221,4.329,4.3311,4.3359,4.3379,4.3405,4.3428,4.3483,4.3515,4.3529,4.3553,4.3592,4.3625,4.363,4.3643,4.3656,4.3658,4.3596,4.3588,4.358,4.3569,4.3658,4.3659,4.3722,4.3722,4.3723]}]]